CAPE
2203 2231 1906 1573 1357 1245 1142 1048 1113 1217 1468 1689 1904 2018 1895 1846 1839 1821 1836 1903 1791 1928 1692 1244 1125 1090 1024 998 1030 974 1092 913
2253 2366 2276 2276 2008 1458 1366 1230 1142 1149 1314 1514 1698 1931 2012 1966 1880 1917 1840 1748 1668 1656 1533 1386 1110 1124 1006 893 960 988 1118 1171
2092 2037 1907 2029 2419 2194 1613 1451 1313 1265 1351 1422 1571 1846 2073 2123 2049 2012 1874 1641 1732 1510 1431 1288 1119 1104 983 835 828 1162 1321 1216
1904 1928 1827 1802 1754 2069 2259 2326 1990 1896 1841 1938 1878 1907 2098 1860 1930 2106 1832 1689 1642 1403 1148 1067 966 1270 1095 658 1018 862 1017 811
1715 1929 2023 2004 1808 1899 1930 2271 2310 2356 2291 2263 2119 2158 2202 2084 2160 2060 2002 1759 1623 1248 1288 1146 1041 1084 1023 878 773 831 798 599
1365 1736 1931 1933 1851 1668 1735 1920 1918 1929 2054 2203 2371 2421 2098 2057 1909 1985 1881 1907 1608 1581 1362 1327 1311 1149 1064 961 817 885 599 338
0 1199 1716 1766 1789 1532 1598 1698 1829 1891 2069 2045 2003 2251 2181 1964 1786 2001 1962 1848 1865 1685 1621 1507 1414 1193 1053 992 792 759 499 291
0 4 923 1602 1628 1554 1448 1417 1540 1623 1695 1703 1916 2016 2070 1964 1888 1841 1716 1768 1780 1764 1631 1481 1367 1046 849 799 804 567 504 258
0 0 2 866 1434 1542 1482 1311 1391 1416 1447 1599 1836 1946 2077 1749 1702 1660 1823 1744 1803 1651 1517 1363 1142 929 891 744 655 526 341 293
0 0 0 0 519 1083 1575 1646 1566 1446 1441 1473 1668 1847 1946 1763 1634 1566 1370 1426 1136 947 826 711 661 824 728 755 518 375 251 209
0 0 0 0 0 490 1037 1600 1972 1823 1568 1455 1601 1746 1804 1686 1440 1461 1278 1209 995 744 663 559 513 700 650 431 302 155 132 33
0 0 0 0 0 7 656 1001 1887 1890 1815 1586 1584 1754 1773 1590 1429 1160 1094 982 1063 797 554 356 277 302 110 63 93 249 98 10
0 0 0 0 0 0 184 778 1395 1364 1749 1832 1686 1728 1690 1512 1298 1021 915 822 817 620 373 186 143 184 120 62 45 66 13 4
0 0 0 0 0 0 0 565 842 1085 1462 2011 1831 1721 1713 1489 1224 995 875 816 705 611 422 130 139 133 80 43 26 1 21 10
0 0 0 0 0 0 0 353 982 1243 1484 1759 1870 1807 1651 1329 1086 895 797 708 725 782 403 215 179 157 97 88 7 12 1 4
0 0 0 0 0 0 0 10 1040 1189 1329 1699 1731 1676 1422 1183 930 795 720 659 689 665 466 346 241 168 146 158 160 19 30 0
0 0 0 0 0 1 6 0 1148 1357 1468 1587 1582 1526 1362 1162 810 680 128 611 674 660 577 581 332 202 153 121 122 58 134 32
0 1 0 0 0 1 2 177 664 1535 1483 1574 1535 1454 1286 1156 983 931 640 499 466 457 526 530 390 238 166 124 144 85 88 33
0 3 4 2 3 3 3 263 533 1762 1577 1748 1442 1234 1279 1185 959 510 379 148 235 411 459 492 368 233 171 105 51 29 26 11
1 4 4 4 3 5 6 710 866 1775 1567 1677 1410 1250 1268 1416 667 223 31 9 143 420 464 620 442 259 154 122 63 33 131 13
CIN
-140 -139 -182 -227 -255 -275 -270 -269 -237 -204 -163 -131 -92 -77 -71 -53 -43 -33 -23 -15 -14 -5 -11 -31 -35 -45 -55 -52 -44 -36 0 -1
-105 -87 -98 -85 -114 -224 -237 -238 -225 -201 -167 -138 -107 -72 -50 -43 -42 -31 -23 -18 -18 -17 -22 -24 -37 -37 -44 -55 -44 -31 0 -1
-103 -116 -137 -107 -52 -75 -176 -194 -203 -193 -165 -145 -102 -43 -22 -10 -13 -16 -24 -23 -19 -21 -23 -28 -38 -34 -36 -51 -39 -1 0 -1
-111 -122 -140 -129 -134 -88 -57 -38 -67 -80 -74 -68 -40 -19 -7 -7 -2 -4 -22 -17 -13 -21 -27 -29 -38 0 -7 -50 -3 -1 -1 -1
-58 -98 -106 -99 -120 -105 -94 -46 -37 -41 -38 -30 -36 -17 -12 -16 0 -1 -1 -4 -1 -15 -10 -4 -2 -1 0 -5 -2 -1 -1 -1
-44 -43 -49 -87 -89 -106 -94 -80 -92 -94 -89 -66 -40 -26 -15 -24 -28 -2 -1 0 -1 -1 -1 0 -1 0 -1 -1 -1 0 -1 -1
0 -48 -55 -58 -84 -127 -119 -124 -105 -102 -82 -83 -74 -41 -29 -34 -22 -12 -2 0 -1 -1 -1 0 -1 -1 0 -1 -1 -1 -1 -2
0 -18 -90 -35 -55 -94 -136 -155 -123 -126 -133 -140 -97 -56 -44 -58 -50 -37 -20 -2 -1 -1 -1 0 0 -1 -2 -1 0 -1 0 -3
0 0 -10 -96 -76 -63 -66 -116 -133 -113 -167 -157 -129 -77 -57 -77 -80 -63 -37 -8 -1 -1 0 0 0 0 0 -4 -2 0 0 -2
0 0 0 0 -158 -108 -60 -59 -79 -90 -128 -181 -149 -113 -81 -87 -83 -94 -96 -56 -73 -76 -74 -61 -19 0 0 0 -1 0 -1 -1
0 0 0 0 0 -142 -87 -57 -49 -56 -93 -148 -163 -150 -109 -85 -105 -87 -101 -79 -105 -107 -101 -82 -35 -2 0 -9 -2 -8 -1 -13
0 0 0 0 0 -18 -102 -65 -47 -46 -73 -113 -170 -155 -133 -86 -89 -121 -116 -114 -90 -95 -106 -103 -69 -23 -37 -50 -27 0 0 -11
0 0 0 0 0 0 -126 -67 -79 -124 -65 -85 -127 -135 -135 -126 -123 -123 -133 -148 -132 -132 -129 -131 -114 -45 -21 -26 -17 0 -5 -14
0 0 0 0 0 0 0 -20 -54 -81 -71 -31 -115 -109 -131 -153 -157 -156 -144 -135 -134 -129 -119 -175 -110 -54 -46 -36 -16 -8 -5 -17
0 0 0 0 0 0 0 -93 -15 -31 -48 -68 -99 -88 -119 -182 -184 -166 -125 -130 -96 -76 -107 -112 -93 -64 -51 -16 -9 -3 0 -24
0 0 0 0 0 -1 0 -132 -6 -52 -114 -108 -117 -98 -137 -190 -240 -191 -143 -113 -73 -67 -53 -49 -39 -65 -13 -2 -1 -1 -14 -10
0 0 0 0 0 -1 -1 -15 -22 -22 -35 -73 -70 -117 -188 -195 -249 -198 -54 -132 -111 -71 -32 -5 -15 -37 -22 -19 -2 -2 0 -14
0 0 0 -1 0 0 0 -164 -117 -7 -31 -40 -53 -97 -151 -183 -181 -116 -127 -197 -232 -163 -95 -8 -4 -17 -8 -9 0 -1 -1 -14
0 0 0 0 0 0 0 -133 -171 -7 -21 -6 -48 -89 -107 -147 -176 -229 -226 -246 -234 -116 -179 -14 -8 -14 -15 -8 -23 -17 -4 -22
0 0 0 0 0 0 0 -82 -89 -4 -8 -2 -18 -40 -63 -61 -169 -277 -294 -188 -191 -133 -115 0 -2 -1 -2 -3 -30 -21 0 -15
Wind_Speed
7 6 7 8 7 6 5 4 2 1 1 1 1 1 1 1 2 1 1 2 1 1 2 3 3 4 5 5 4 5 1 3
8 8 8 8 8 8 7 6 5 4 3 3 3 2 2 2 2 2 2 3 3 1 1 1 2 3 5 6 4 4 1 4
10 10 11 11 10 10 10 8 6 6 4 4 5 4 4 5 5 3 3 3 3 4 2 1 1 2 4 4 3 2 2 5
12 12 13 12 13 13 12 10 9 7 6 5 5 6 6 7 8 8 5 3 5 6 5 2 2 2 2 3 4 2 3 6
14 14 14 14 15 15 14 14 13 11 8 8 7 8 7 7 9 8 6 5 6 8 8 5 3 3 2 4 5 4 7 9
16 15 15 16 16 17 17 17 15 16 15 12 10 9 9 9 8 8 8 6 6 7 8 7 5 4 3 4 4 5 9 10
21 17 16 16 17 18 18 17 17 17 17 16 15 12 12 11 10 9 10 8 7 7 9 8 7 6 5 4 5 6 9 11
25 24 21 20 19 19 18 18 17 21 19 18 17 17 14 14 13 11 11 11 10 9 9 10 9 8 7 6 6 8 9 13
28 28 28 25 25 24 22 20 20 22 20 20 20 21 18 16 15 15 13 13 12 11 10 11 12 9 7 6 7 11 12 15
31 30 30 30 29 28 26 25 25 24 22 22 22 21 20 19 19 18 16 14 13 13 12 13 13 11 9 8 9 12 14 15
35 33 33 34 34 31 31 30 29 27 25 24 21 23 22 20 21 19 16 17 14 15 14 14 13 12 11 10 12 15 12 15
35 37 37 36 35 33 32 33 32 31 30 27 24 23 21 20 20 20 16 18 17 16 16 15 14 14 12 12 13 14 12 15
37 38 38 38 38 36 32 31 32 34 34 32 29 26 24 21 21 21 19 19 18 16 17 16 14 12 12 13 15 14 12 14
40 40 40 39 37 35 34 31 35 36 36 34 32 28 24 23 21 21 20 22 20 17 17 18 17 10 14 13 16 18 14 14
42 41 40 39 38 37 35 36 34 33 35 35 32 30 27 23 21 20 23 24 23 20 18 17 18 13 11 14 16 18 17 18
42 42 39 36 36 36 34 34 28 29 32 30 33 30 28 24 23 22 22 24 24 22 20 20 18 15 16 14 19 16 18 19
43 41 37 38 38 37 39 39 33 32 29 29 30 31 29 27 26 27 24 19 26 23 21 22 20 18 17 17 20 17 19 20
41 39 40 40 39 38 38 47 47 30 25 25 24 27 28 27 28 24 23 23 28 28 24 25 20 20 18 19 18 19 21 22
42 41 41 40 38 40 43 50 39 34 31 25 24 26 28 27 23 24 25 23 24 36 25 22 20 18 18 19 19 20 23 22
43 41 40 40 39 39 40 43 29 30 30 24 23 24 27 28 26 21 22 26 28 25 24 21 18 16 16 18 20 19 21 24
Wind_Direction
273 245 240 252 239 232 237 251 247 244 270 326 315 293 187 189 173 210 298 321 356 36 58 70 106 121 122 123 126 139 35 327
268 260 259 249 249 253 249 251 257 263 276 291 292 296 280 252 234 239 281 298 303 314 359 80 142 147 147 147 150 151 100 312
269 261 265 265 262 259 264 265 260 263 259 286 295 293 289 285 272 260 271 282 282 301 296 242 189 181 166 161 160 182 254 294
266 262 264 263 266 270 265 267 269 264 266 278 281 287 291 290 289 289 272 270 285 295 295 274 226 274 203 178 187 260 253 292
281 266 259 259 261 268 271 274 273 267 253 267 265 281 288 286 295 287 283 278 291 294 297 286 271 262 202 188 192 283 304 304
289 279 271 262 261 265 270 268 268 269 268 266 269 273 281 287 284 289 280 278 274 290 294 287 278 248 229 200 233 291 305 309
291 283 275 270 262 263 264 262 261 264 267 267 269 272 278 283 286 285 287 286 277 287 292 289 282 272 258 251 249 278 301 302
294 286 279 275 270 268 264 261 257 263 266 266 262 271 272 278 280 278 280 286 287 283 287 289 289 283 279 271 263 285 296 295
295 291 284 276 273 271 268 266 261 262 262 261 263 264 268 271 275 277 276 282 286 288 290 290 292 290 276 274 274 290 293 291
297 295 290 284 275 272 267 267 265 264 264 261 256 258 263 267 273 274 273 276 279 284 286 289 288 285 281 281 280 289 290 289
295 296 293 288 281 275 269 266 263 262 262 262 254 255 257 263 270 273 267 268 273 280 284 286 286 284 285 288 291 295 291 293
301 296 293 291 288 279 272 267 262 260 259 259 257 252 250 258 268 268 262 263 269 274 280 285 287 287 289 294 295 294 296 295
304 300 297 293 288 283 273 266 262 259 257 254 254 254 250 253 263 264 256 257 262 268 278 281 285 285 291 300 300 293 292 294
305 303 299 296 290 285 280 272 268 263 259 256 252 250 246 251 256 259 250 255 257 262 270 278 284 272 286 292 293 290 288 287
312 308 304 299 294 285 279 273 269 265 261 255 248 246 247 244 251 255 252 253 255 260 266 270 280 273 269 291 291 288 286 282
318 313 308 305 297 287 275 269 259 259 264 258 249 241 241 242 245 246 244 247 254 259 265 269 274 273 275 265 286 291 281 281
321 320 314 307 298 287 273 267 264 265 266 263 252 241 237 239 247 243 230 239 251 257 260 264 270 274 270 272 272 280 280 282
329 325 312 305 297 287 273 261 255 261 259 260 252 243 236 236 248 251 252 251 250 252 257 263 267 273 270 269 262 270 269 274
328 321 310 304 297 282 268 250 254 257 258 259 255 249 243 238 233 243 246 245 243 249 249 257 263 267 268 266 264 266 272 268
324 319 307 307 295 281 267 253 252 255 255 260 256 251 246 244 241 241 252 249 245 234 247 255 262 264 262 262 267 265 268 269